| time (UTC) | temp F | wind direction | speed knots | gust knots | rain 1hr in | rain 24hr in | rain mn in | humidity % | barometer mb |
| 20260506001601 | 50 | 43 | 0.0 | 0.0 | 0.00 | 0.45 | 0.00 | 1 | 1008.7 |
| 20260506000058 | 50 | 43 | 0.0 | 0.0 | 0.00 | 0.45 | 0.00 | 1 | 1008.8 |
| 20260505234549 | 50 | 42 | 0.0 | 0.0 | 0.00 | 0.45 | 0.00 | 1 | 1008.8 |
| 20260505233048 | 51 | 43 | 0.0 | 0.0 | 0.00 | 0.45 | 0.00 | 1 | 1008.8 |
| 20260505231543 | 51 | 43 | 0.0 | 0.0 | 0.00 | 0.45 | 0.00 | 1 | 1009.0 |
| 20260505230035 | 51 | 42 | 0.0 | 0.0 | 0.00 | 0.45 | 0.00 | 1 | 1009.0 |
| 20260505224532 | 51 | 43 | 0.0 | 0.0 | 0.01 | 0.45 | 0.00 | 1 | 1009.1 |
| 20260505223027 | 52 | 42 | 0.0 | 0.0 | 0.01 | 0.45 | 0.00 | 1 | 1009.1 |
| 20260505221523 | 52 | 43 | 0.0 | 0.0 | 0.03 | 0.45 | 0.00 | 1 | 1009.1 |
| 20260505220040 | 52 | 43 | 0.0 | 0.0 | 0.05 | 0.45 | 0.00 | 1 | 1009.3 |
| 20260505214525 | 52 | 42 | 0.0 | 0.0 | 0.07 | 0.44 | 0.44 | 1 | 1009.5 |
| 20260505213018 | 53 | 42 | 0.0 | 0.0 | 0.14 | 0.44 | 0.44 | 1 | 1009.6 |
| 20260505211505 | 53 | 43 | 0.0 | 0.0 | 0.15 | 0.42 | 0.42 | 1 | 1009.5 |
| 20260505210001 | 53 | 42 | 0.0 | 0.9 | 0.19 | 0.40 | 0.40 | 1 | 1009.4 |
| 20260505204556 | 53 | 42 | 0.0 | 0.0 | 0.25 | 0.37 | 0.37 | 7 | 1009.3 |
| 20260505203042 | 53 | 43 | 0.0 | 0.0 | 0.28 | 0.30 | 0.30 | 17 | 1009.1 |
| 20260505201541 | 53 | 42 | 0.0 | 0.0 | 0.26 | 0.27 | 0.27 | 35 | 1008.7 |
| 20260505200035 | 53 | 43 | 0.0 | 0.0 | 0.20 | 0.21 | 0.21 | 52 | 1008.5 |
| 20260505194528 | 54 | 43 | 0.0 | 0.0 | 0.11 | 0.12 | 0.12 | 67 | 1008.0 |
| 20260505193124 | 54 | 43 | 0.0 | 0.0 | 0.00 | 0.01 | 0.01 | 77 | 1007.8 |
| 20260505191523 | 54 | 43 | 0.0 | 0.0 | 0.00 | 0.01 | 0.01 | 78 | 1006.7 |
| 20260505190014 | 55 | 42 | 0.0 | 0.0 | 0.00 | 0.01 | 0.01 | 79 | 1006.4 |
| 20260505184511 | 57 | 43 | 0.0 | 0.0 | 0.00 | 0.01 | 0.01 | 77 | 1006.2 |
| 20260505183007 | 59 | 44 | 0.0 | 0.0 | 0.00 | 0.01 | 0.01 | 75 | 1006.0 |
| 20260505181502 | 60 | 44 | 0.0 | 0.0 | 0.00 | 0.01 | 0.01 | 70 | 1005.9 |
| 20260505180057 | 61 | 44 | 0.0 | 0.0 | 0.00 | 0.01 | 0.01 | 69 | 1006.1 |
| 20260505174553 | 61 | 44 | 0.0 | 0.0 | 0.00 | 0.01 | 0.01 | 71 | 1005.8 |
| 20260505173051 | 61 | 44 | 0.0 | 0.9 | 0.00 | 0.01 | 0.01 | 69 | 1005.4 |
| 20260505171557 | 63 | 44 | 0.0 | 0.0 | 0.00 | 0.01 | 0.01 | 72 | 1005.4 |
| 20260505170039 | 64 | 44 | 0.0 | 0.0 | 0.00 | 0.01 | 0.01 | 70 | 1005.1 |
| 20260505164552 | 65 | 44 | 0.0 | 0.0 | 0.00 | 0.01 | 0.01 | 67 | 1005.0 |
| 20260505163035 | 66 | 44 | 0.0 | 0.0 | 0.00 | 0.01 | 0.01 | 66 | 1005.1 |
| 20260505161535 | 66 | 44 | 0.0 | 0.0 | 0.00 | 0.01 | 0.01 | 62 | 1005.0 |
| 20260505153014 | 65 | 44 | 0.0 | 0.0 | 0.00 | 0.01 | 0.01 | 67 | 1004.9 |
| 20260505151510 | 64 | 44 | 0.0 | 0.0 | 0.01 | 0.01 | 0.01 | 72 | 1005.1 |
| 20260505124541 | 71 | 44 | 0.0 | 0.0 | 0.00 | 0.00 | 0.00 | 47 | 1005.3 |
| 20260505123017 | 72 | 44 | 0.0 | 0.9 | 0.00 | 0.00 | 0.00 | 44 | 1005.2 |
| 20260505120154 | 74 | 44 | 0.0 | 0.0 | 0.00 | 0.00 | 0.00 | 41 | 1005.2 |
| 20260505114547 | 74 | 44 | 0.0 | 0.9 | 0.00 | 0.00 | 0.00 | 36 | 1005.2 |
| 20260505113112 | 74 | 44 | 0.0 | 0.9 | 0.00 | 0.00 | 0.00 | 44 | 1005.3 |
| 20260505111529 | 75 | 44 | 0.0 | 0.0 | 0.00 | 0.00 | 0.00 | 38 | 1005.3 |
| 20260505101510 | 74 | 44 | 0.0 | 0.9 | 0.00 | 0.00 | 0.00 | 36 | 1006.0 |
| 20260505100007 | 73 | 44 | 0.0 | 2.6 | 0.00 | 0.00 | 0.00 | 42 | 1006.2 |
| 20260505094501 | 72 | 44 | 0.0 | 0.9 | 0.00 | 0.00 | 0.00 | 47 | 1006.3 |
| 20260505093105 | 69 | 44 | 0.0 | 0.0 | 0.00 | 0.00 | 0.00 | 52 | 1006.5 |
| 20260505091553 | 69 | 44 | 0.0 | 0.9 | 0.00 | 0.00 | 0.00 | 48 | 1006.8 |
| 20260505090049 | 68 | 44 | 0.0 | 0.9 | 0.00 | 0.00 | 0.00 | 56 | 1006.9 |
| 20260505084551 | 69 | 44 | 0.0 | 0.0 | 0.00 | 0.00 | 0.00 | 55 | 1007.1 |
| 20260505083048 | 69 | 44 | 0.0 | 0.9 | 0.00 | 0.00 | 0.00 | 56 | 1007.2 |
| 20260505081536 | 67 | 44 | 0.0 | 0.0 | 0.00 | 0.00 | 0.00 | 61 | 1007.3 |
| 20260505080032 | 66 | 44 | 0.0 | 0.9 | 0.00 | 0.00 | 0.00 | 62 | 1007.6 |
| 20260505074528 | 65 | 44 | 0.0 | 0.9 | 0.00 | 0.00 | 0.00 | 65 | 1007.8 |
| 20260505073024 | 64 | 44 | 0.0 | 0.0 | 0.00 | 0.00 | 0.00 | 66 | 1007.9 |
| 20260505071520 | 63 | 44 | 0.0 | 0.0 | 0.00 | 0.00 | 0.00 | 68 | 1008.1 |
| 20260505070015 | 63 | 44 | 0.0 | 0.9 | 0.00 | 0.00 | 0.00 | 71 | 1008.3 |
| 20260505064510 | 61 | 44 | 0.0 | 0.0 | 0.00 | 0.00 | 0.00 | 74 | 1008.6 |
| 20260505063005 | 58 | 44 | 0.0 | 0.0 | 0.00 | 0.00 | 0.00 | 75 | 1008.5 |
| 20260505061502 | 57 | 43 | 0.0 | 0.0 | 0.00 | 0.00 | 0.00 | 75 | 1008.7 |
| 20260505060059 | 56 | 43 | 0.0 | 0.0 | 0.00 | 0.00 | 0.00 | 70 | 1008.8 |
| 20260505054552 | 53 | 43 | 0.0 | 0.0 | 0.00 | 0.00 | 0.00 | 5 | 1008.8 |
| 20260505053110 | 51 | 43 | 0.0 | 0.0 | 0.00 | 0.00 | 0.00 | 1 | 1008.8 |
| 20260505051544 | 48 | 43 | 0.0 | 0.0 | 0.00 | 0.00 | 0.00 | 1 | 1008.9 |
| 20260505041526 | 43 | 42 | 0.0 | 0.0 | 0.00 | 0.00 | 0.00 | 1 | 1009.1 |
| 20260505040022 | 43 | 43 | 0.0 | 0.0 | 0.00 | 0.00 | 0.00 | 1 | 1009.0 |
| 20260505034524 | 43 | 43 | 0.0 | 0.0 | 0.00 | 0.00 | 0.00 | 1 | 1008.9 |
| 20260505033017 | 43 | 42 | 0.0 | 0.0 | 0.00 | 0.00 | 0.00 | 1 | 1009.0 |
| 20260505031512 | 44 | 43 | 0.0 | 0.0 | 0.00 | 0.00 | 0.00 | 1 | 1009.0 |
| 20260505030007 | 44 | 43 | 0.0 | 0.0 | 0.00 | 0.00 | 0.00 | 1 | 1009.1 |
| 20260505024600 | 45 | 42 | 0.0 | 0.0 | 0.00 | 0.00 | 0.00 | 1 | 1009.2 |
| 20260505023101 | 45 | 43 | 0.0 | 0.0 | 0.00 | 0.00 | 0.00 | 1 | 1009.3 |
| 20260505021552 | 45 | 42 | 0.0 | 0.0 | 0.00 | 0.00 | 0.00 | 1 | 1009.4 |
| 20260505020047 | 46 | 43 | 0.0 | 0.0 | 0.00 | 0.00 | 0.00 | 1 | 1009.4 |
| 20260505014543 | 46 | 43 | 0.0 | 0.0 | 0.00 | 0.00 | 0.00 | 5 | 1009.5 |
| 20260505013040 | 46 | 43 | 0.0 | 0.0 | 0.00 | 0.00 | 0.00 | 16 | 1009.4 |
| 20260505011554 | 46 | 42 | 0.0 | 0.0 | 0.00 | 0.00 | 0.00 | 18 | 1009.4 |
| 20260505010033 | 47 | 43 | 0.0 | 0.0 | 0.00 | 0.00 | 0.00 | 25 | 1009.5 |
| 20260505004530 | 47 | 42 | 0.0 | 0.0 | 0.00 | 0.00 | 0.00 | 33 | 1009.6 |
| 20260505003026 | 48 | 43 | 0.0 | 0.0 | 0.00 | 0.00 | 0.00 | 41 | 1009.8 |